Wind_Speed
48 48 49 50 52 53 53 54 53 52 51 50 51 51 51 51 51 50 49 48 47 45 42 39 36 35 34 34 36 38 41 43 45 46 47 48 49 48 48 49 49 50 51 52 51 50 50 49 48 46 44 42 41 41 41 42 43 44 44 45 46 49 53 58 61 60 57 58 59 62 67 71 69 72
48 48 48 47 48 50 50 52 52 52 52 51 50 51 51 51 52 52 51 50 48 46 44 40 36 35 34 34 36 37 39 42 44 46 47 48 48 48 48 47 48 49 50 51 51 50 50 49 48 46 44 42 41 41 41 41 42 43 43 43 45 48 52 57 59 59 57 57 58 60 66 71 70 70
49 49 48 46 45 46 47 48 49 50 51 50 50 50 50 51 51 51 52 52 49 47 44 41 37 35 34 34 36 37 38 39 42 45 47 48 48 48 47 46 47 48 49 50 50 50 50 49 48 46 43 42 41 41 41 41 41 42 42 43 44 48 51 55 58 58 56 55 54 57 64 69 71 70
50 50 50 47 44 44 44 45 46 47 48 49 49 49 49 50 51 51 51 52 51 47 44 42 38 35 34 34 36 37 38 38 40 44 46 47 48 47 45 44 45 45 47 48 48 49 49 49 48 46 44 43 42 41 40 41 41 42 42 43 44 46 49 52 56 59 56 51 47 50 58 65 69 71
51 50 50 50 46 43 44 44 44 44 45 47 48 48 49 49 50 50 50 51 51 49 46 43 39 35 34 34 35 37 38 38 39 42 45 47 48 47 44 42 42 43 44 45 47 48 49 49 47 45 44 42 41 41 40 41 41 42 42 43 43 44 47 50 56 59 55 47 42 43 49 55 62 68
51 48 48 50 48 45 45 45 44 43 43 45 47 47 48 49 49 49 49 49 50 49 46 43 40 36 34 34 35 36 37 38 39 41 44 46 47 45 42 40 40 41 42 43 45 47 48 48 46 44 43 42 41 40 40 41 41 41 41 41 42 43 45 49 54 58 54 45 39 37 36 40 49 59
49 47 48 51 48 46 46 47 45 44 42 43 45 47 47 48 48 48 48 48 49 49 46 43 40 37 34 33 34 35 36 38 38 40 42 43 45 43 41 40 39 39 40 42 44 45 46 46 44 42 41 41 41 40 40 40 40 40 40 40 41 43 44 48 53 58 55 46 39 32 27 30 38 48
49 48 51 54 51 46 47 48 47 45 44 42 43 46 46 47 48 47 47 47 48 48 47 43 39 36 34 33 33 34 35 37 37 39 40 41 42 42 40 39 38 37 38 40 42 44 45 44 42 41 40 40 40 39 38 39 38 38 39 39 41 42 44 47 52 58 57 48 41 32 25 27 32 38
47 49 53 56 54 47 46 48 47 46 45 43 42 44 45 46 47 47 47 47 47 47 46 42 38 36 34 33 32 33 34 36 37 38 39 40 40 40 38 37 36 35 36 38 40 42 43 42 40 39 39 39 38 37 37 37 37 37 37 38 40 42 44 46 51 58 58 51 44 35 25 22 26 32
46 49 55 58 57 49 46 47 47 46 46 44 42 43 44 45 47 47 47 47 46 46 44 41 38 35 33 32 31 31 33 35 37 37 37 37 37 37 35 34 34 34 35 36 38 39 40 39 38 37 37 37 37 36 36 36 35 35 36 37 39 41 43 45 50 56 58 55 49 38 25 18 20 28
48 49 52 55 57 52 46 46 47 46 46 45 43 42 44 45 47 47 47 47 45 44 42 40 37 34 32 31 30 30 33 35 36 35 35 34 34 33 33 32 32 33 34 35 36 37 37 36 36 36 36 36 36 35 34 34 33 33 34 36 38 41 43 43 47 53 57 58 51 39 29 21 18 22
53 50 49 51 55 53 45 44 47 46 46 46 44 43 44 45 47 48 47 46 45 43 41 39 36 33 32 29 28 30 33 34 34 33 33 32 30 31 32 31 31 33 33 33 33 34 35 35 34 34 35 35 34 33 32 32 32 32 32 34 37 40 42 42 45 49 54 59 53 42 35 27 18 16
57 55 52 50 53 54 47 43 45 46 46 47 46 44 44 45 47 48 47 46 44 42 40 37 34 33 30 27 27 30 32 33 33 32 32 30 28 29 30 30 31 31 31 31 31 33 34 33 32 33 33 33 32 31 31 31 30 30 31 33 35 40 43 42 42 45 50 57 56 47 40 32 23 17
59 59 58 55 54 54 49 43 43 45 46 47 47 46 45 46 46 47 47 45 43 41 39 35 32 31 28 25 28 31 33 33 33 31 30 29 28 29 28 28 31 30 27 27 30 33 32 29 30 32 32 31 31 30 30 30 29 29 30 32 34 39 42 42 40 42 47 53 55 50 43 36 30 23
59 59 59 58 56 56 52 44 41 44 45 47 48 47 46 46 46 46 46 44 41 40 37 34 32 30 26 25 29 33 33 33 32 30 29 28 28 28 27 27 29 28 25 25 29 30 28 27 29 30 30 29 29 28 29 29 28 29 29 30 32 37 42 41 39 40 44 48 51 50 46 41 36 30
58 57 57 57 57 56 53 46 41 42 44 46 47 47 46 46 46 46 45 43 41 38 36 33 31 28 26 27 31 33 33 33 32 29 28 28 28 28 26 26 27 26 24 25 28 27 26 26 28 29 28 28 28 27 27 28 28 28 28 28 30 35 41 42 39 39 41 44 47 47 46 43 38 33
54 52 52 54 54 53 52 46 42 41 43 45 47 46 45 45 45 45 44 43 40 37 35 33 30 28 27 29 32 34 34 33 30 28 28 28 28 27 26 24 24 24 24 26 26 25 25 26 27 27 27 26 26 26 26 26 27 26 26 26 27 31 38 41 40 39 39 41 43 44 44 42 38 34
51 48 48 49 50 51 49 45 41 39 41 44 46 46 45 44 43 42 41 41 39 36 34 31 29 28 29 30 32 34 33 31 29 28 28 28 27 26 24 23 22 23 24 25 24 23 25 26 25 25 26 25 25 25 25 25 25 24 24 24 25 27 33 40 41 39 39 39 41 42 42 41 38 33
51 48 46 46 47 48 45 42 40 38 39 42 45 46 46 44 42 40 39 38 37 35 32 29 28 28 29 31 33 34 32 30 29 29 28 27 26 24 23 22 22 23 24 24 23 23 24 24 24 24 24 24 24 24 24 24 23 23 23 22 23 24 28 35 40 40 39 38 40 41 42 42 38 33
50 48 46 46 45 43 41 40 38 37 37 40 44 46 46 43 41 39 37 36 36 34 31 28 28 29 31 32 33 33 31 30 29 29 27 26 24 23 22 21 22 23 23 23 23 23 23 23 23 23 22 22 23 22 22 22 22 22 22 22 23 24 25 31 37 40 39 38 38 40 41 42 39 33
48 47 47 46 44 42 41 38 35 36 37 39 42 45 45 43 41 37 35 35 35 33 31 30 30 32 32 32 32 31 30 29 28 27 26 24 23 23 22 22 22 22 23 23 23 22 21 21 21 21 21 21 21 21 21 21 21 22 22 22 23 24 24 27 33 38 39 38 37 39 40 40 40 35
46 46 47 46 44 43 39 34 32 35 38 38 41 44 44 43 39 34 33 34 33 32 32 32 33 33 32 32 32 31 30 29 27 26 24 23 22 22 21 22 22 22 22 22 22 21 21 20 19 19 19 20 20 20 20 21 22 21 21 21 22 23 23 25 29 35 38 38 37 38 39 39 39 36
46 46 46 46 44 42 38 32 31 35 38 39 40 41 42 41 36 31 31 32 32 33 33 33 33 32 32 32 31 30 29 27 25 24 24 22 21 21 21 21 21 22 22 22 21 20 20 19 18 18 18 19 19 19 20 21 22 21 22 22 22 22 23 24 27 31 36 38 37 37 38 37 37 35
49 48 47 46 44 41 37 32 31 34 37 39 38 38 39 37 32 30 31 32 32 33 33 32 32 32 31 31 30 29 27 25 24 23 23 21 21 21 21 21 21 22 22 21 21 20 19 18 18 18 18 18 18 18 19 21 21 21 21 21 22 22 22 23 26 29 33 36 38 37 37 36 35 34
48 47 45 44 42 40 36 32 32 33 34 36 36 34 33 32 30 31 32 32 33 34 34 33 33 32 31 30 28 27 26 24 23 23 22 21 21 21 21 20 20 21 21 21 20 20 19 18 17 17 17 17 17 17 17 18 19 18 18 19 20 20 21 22 25 28 31 34 37 38 37 36 35 34
46 44 42 41 39 37 34 32 32 32 31 33 33 29 28 29 32 33 33 33 35 35 35 34 33 31 30 29 27 26 24 23 22 22 22 21 21 21 21 20 20 21 22 22 21 20 18 17 16 15 15 16 16 15 15 15 16 16 15 16 16 17 18 20 23 26 29 32 35 38 38 37 36 35
44 42 40 37 34 32 32 32 32 30 30 31 29 25 26 30 32 33 34 35 36 35 35 34 32 30 29 28 27 25 23 22 23 23 22 21 21 21 21 20 21 23 22 21 20 19 17 16 15 14 14 14 13 12 12 13 13 13 11 12 12 13 14 16 19 24 27 30 33 37 38 38 36 35
42 40 38 33 30 29 30 31 30 28 29 29 26 24 27 30 32 34 36 36 36 35 35 32 29 28 28 27 25 24 23 24 24 23 22 21 21 21 21 21 22 22 21 20 19 17 16 15 14 13 12 12 11 10 10 11 10 9 7 7 8 10 11 11 13 18 24 27 30 34 36 37 37 35
42 40 36 31 29 30 29 29 28 28 28 27 25 26 28 31 33 34 35 36 36 34 32 29 27 27 26 25 25 26 26 26 24 22 21 21 20 20 20 20 21 20 20 19 18 17 16 15 13 12 12 11 10 9 9 8 7 5 4 3 4 4 6 7 8 12 18 22 26 29 33 35 36 36
43 40 35 31 30 30 28 28 29 29 28 26 27 29 30 31 33 35 35 35 34 30 28 27 26 26 26 27 28 28 27 25 23 21 21 20 20 20 20 21 21 20 20 20 18 17 16 14 13 12 11 10 10 9 8 6 5 4 2 1 1 1 1 1 3 6 11 17 21 24 28 31 34 35
43 39 35 31 29 27 26 27 28 28 26 26 29 31 31 32 34 35 34 32 29 27 27 26 26 27 28 28 28 27 26 24 23 21 21 20 20 20 21 21 21 21 21 21 20 18 16 15 13 12 12 11 11 10 9 7 6 4 2 1 2 2 4 3 1 2 6 11 15 19 23 27 30 33
40 36 31 28 27 26 25 26 27 27 26 29 31 32 33 35 35 33 32 30 29 28 28 27 27 27 27 26 26 25 25 25 24 22 22 21 20 20 21 21 22 22 22 21 20 19 18 16 14 13 13 12 12 11 10 9 8 6 4 4 4 4 5 4 2 0 3 6 10 14 18 21 25 28
35 32 27 26 26 25 24 24 25 26 28 31 32 32 35 36 36 34 33 32 31 30 28 27 26 26 25 25 24 25 26 26 25 24 23 22 20 20 21 22 22 22 23 22 21 20 19 17 16 15 14 14 13 12 11 10 9 8 7 7 6 5 5 4 2 1 0 2 6 9 13 17 20 23
30 28 25 23 23 23 22 23 24 26 29 32 33 34 36 37 36 36 36 33 31 29 27 26 25 24 24 24 24 25 26 25 25 24 23 22 21 20 20 21 21 22 23 22 22 21 20 18 17 15 15 15 15 13 12 11 10 10 10 9 6 6 6 4 2 0 0 1 3 6 9 13 16 19
26 24 23 21 20 19 21 23 25 27 30 32 34 36 38 37 36 37 36 34 31 29 27 26 25 23 23 23 23 24 25 25 24 25 24 23 22 21 21 21 21 21 22 22 22 22 21 19 17 16 16 16 16 15 13 12 12 12 12 11 7 5 5 4 3 2 1 1 2 4 6 9 12 16
22 21 20 19 18 17 20 23 25 28 30 31 34 38 39 38 37 37 35 33 31 28 27 25 24 22 22 22 23 23 23 23 23 24 25 24 23 22 21 21 20 20 20 21 21 21 21 19 18 16 16 17 17 17 15 14 14 14 14 13 10 6 4 4 4 3 2 1 2 3 4 6 9 12
21 20 18 18 16 16 18 21 24 28 30 30 34 39 40 39 38 36 34 32 30 27 26 25 23 21 21 22 22 21 21 21 22 23 23 24 23 23 22 22 21 20 19 19 19 19 19 18 17 16 17 17 18 18 17 16 16 16 15 15 13 9 6 5 5 4 3 2 2 4 4 4 5 8
20 20 18 16 14 14 16 20 24 28 30 31 35 40 41 40 38 35 33 32 30 27 26 25 23 22 21 21 21 21 20 20 20 21 21 21 22 23 23 23 22 21 19 19 18 18 17 17 17 17 16 16 17 19 19 18 18 17 16 14 12 10 8 7 6 3 2 2 3 4 4 4 4 4
18 19 18 15 13 13 15 18 23 27 29 31 35 39 40 40 39 36 33 32 30 28 26 25 24 22 21 21 21 21 20 20 20 19 19 19 20 21 23 23 23 22 21 20 19 18 18 17 16 15 15 17 19 20 19 19 19 18 16 15 13 10 9 9 8 5 2 2 3 3 3 4 3 3
17 18 18 16 14 13 14 17 21 25 29 32 35 39 40 40 39 37 34 31 29 27 27 25 24 23 22 21 22 22 21 20 20 19 19 19 19 20 21 22 22 22 22 21 20 19 19 18 16 15 17 20 22 20 18 18 18 18 17 16 14 11 10 10 10 8 5 2 2 3 4 4 3 2
15 17 17 17 17 17 18 19 20 24 28 32 36 39 40 40 39 37 34 31 27 26 25 25 23 22 22 21 21 21 20 20 19 19 19 19 20 20 20 20 21 21 21 21 21 20 19 19 18 19 21 23 22 19 17 17 17 17 18 16 14 12 12 11 11 11 8 5 3 3 4 5 4 3
12 14 16 19 21 22 23 23 23 24 27 32 36 40 41 40 39 37 34 31 28 25 23 23 22 22 21 21 21 20 20 19 19 19 19 19 19 20 19 19 20 20 20 20 20 19 19 19 19 20 21 21 21 18 17 17 17 17 17 17 15 14 13 12 12 12 10 8 5 5 5 4 3 4
9 11 14 18 22 25 27 27 26 25 27 31 36 40 41 40 40 38 35 32 30 26 23 22 21 21 20 20 20 20 20 19 19 18 18 18 19 19 19 19 20 20 20 19 19 18 18 18 18 19 20 21 20 18 16 16 18 18 18 17 17 16 15 14 13 12 11 10 8 7 6 4 3 3
8 10 12 15 19 23 26 27 27 27 28 31 36 39 40 39 39 38 35 32 30 27 24 22 21 21 20 20 20 20 20 20 19 17 17 18 18 18 19 19 19 19 19 19 18 19 19 19 19 19 20 20 18 16 15 17 18 19 18 18 18 18 17 16 16 15 14 12 10 9 7 6 5 5
8 10 12 15 16 19 22 26 27 27 27 30 35 38 38 37 37 37 35 33 30 28 25 24 23 23 22 20 19 20 20 20 19 18 17 17 17 18 19 19 18 18 18 19 19 19 19 19 18 18 19 18 16 14 16 18 19 19 19 19 19 19 19 19 18 17 16 15 13 11 10 8 8 7
Wind_Direction
272 268 265 264 262 260 258 257 256 256 255 256 256 257 257 258 257 256 255 255 257 257 256 257 259 260 262 261 260 259 259 260 260 260 259 259 258 257 255 254 252 252 252 253 252 252 251 252 253 253 254 255 257 258 259 260 261 260 259 258 255 252 249 246 244 243 245 248 251 252 252 251 247 240
275 270 265 264 262 260 258 257 255 254 254 253 254 255 256 257 257 257 257 255 255 256 256 256 258 260 262 261 260 259 258 258 259 260 259 258 257 256 255 253 252 251 251 252 252 251 251 252 253 253 254 255 257 258 259 261 262 262 261 259 256 252 248 243 240 239 242 246 249 252 254 254 253 248
275 270 263 262 262 260 258 257 255 254 252 252 251 252 253 254 255 256 257 256 255 255 256 257 258 259 261 260 260 260 259 257 258 259 258 257 256 255 255 253 251 250 250 251 252 251 252 252 253 254 254 255 257 258 259 261 262 262 262 260 256 252 248 241 236 235 238 243 246 249 253 256 256 254
273 269 261 259 260 260 258 256 254 253 252 251 250 250 250 252 253 254 255 255 255 255 256 256 257 259 260 260 259 260 260 258 257 257 257 256 255 255 254 252 251 249 249 250 251 251 252 252 253 254 254 255 256 258 259 260 262 263 262 261 258 253 249 240 232 232 235 239 242 245 250 255 256 256
270 270 262 257 258 260 259 256 254 253 251 250 249 248 248 249 251 252 253 253 254 255 256 257 257 258 258 259 259 260 260 259 257 256 256 256 256 255 254 252 250 249 249 250 251 251 251 252 254 254 254 255 256 258 259 260 261 263 263 262 260 256 249 239 229 228 232 236 238 241 244 250 253 255
267 269 265 259 259 261 261 257 254 253 252 251 249 248 247 248 248 249 251 252 252 253 254 256 257 257 257 258 258 258 259 259 257 255 255 256 257 258 256 252 249 249 249 250 250 250 251 252 254 254 254 254 256 257 258 259 261 262 264 263 261 257 247 237 228 225 228 233 235 237 240 243 247 252
265 266 265 263 260 262 262 259 255 254 253 252 251 249 247 247 247 247 248 250 251 252 253 254 256 257 257 258 257 257 258 258 256 255 254 256 258 259 257 254 251 249 249 249 250 250 251 252 253 253 253 253 254 256 257 259 261 262 264 264 262 256 246 235 228 223 226 232 234 237 242 242 243 245
262 261 262 263 261 261 262 259 256 254 253 252 252 250 248 247 246 245 245 246 248 251 252 253 254 256 257 257 256 256 256 255 255 254 254 255 257 258 257 255 252 250 249 249 250 250 250 251 252 251 251 252 253 255 257 258 260 262 264 265 262 255 245 235 227 223 226 230 235 243 247 242 241 238
256 259 261 262 261 260 259 257 257 254 252 252 252 251 249 247 246 244 243 243 245 249 251 253 253 254 255 256 255 255 254 253 253 253 254 255 256 257 257 255 253 250 249 248 249 249 250 250 250 249 249 251 252 255 256 258 259 262 264 265 262 253 243 235 227 224 226 229 236 246 247 240 243 236
249 255 259 262 262 260 256 256 256 254 251 250 250 250 249 247 245 244 243 243 244 247 250 252 252 253 254 255 254 252 252 252 252 253 254 255 255 256 255 254 253 251 248 248 248 248 249 249 248 247 248 249 251 253 255 257 260 263 265 266 260 250 241 235 229 227 227 229 235 243 246 247 248 234
244 249 256 262 263 259 255 255 255 252 249 248 247 248 247 245 244 243 243 243 245 246 248 250 251 253 253 253 251 250 250 251 252 253 254 254 254 255 254 253 253 251 249 247 247 248 249 248 246 245 246 249 251 252 255 257 260 263 265 266 258 247 239 234 231 229 228 228 233 239 245 254 252 231
245 247 252 258 261 259 255 255 254 251 248 246 245 245 246 244 243 242 242 244 245 246 247 248 249 251 251 250 248 247 248 250 251 252 251 252 254 256 256 254 251 250 248 247 247 248 248 246 245 245 246 248 251 253 255 258 260 263 265 264 256 244 236 233 231 231 230 229 231 237 243 252 253 235
246 248 249 253 259 260 258 255 253 250 246 244 243 243 243 244 243 243 242 243 245 246 247 246 247 249 249 246 245 246 248 248 248 249 249 250 252 254 257 256 252 248 246 246 247 247 246 245 244 245 246 249 251 254 256 258 259 262 263 262 254 241 234 232 231 232 232 230 231 236 241 247 253 249
245 247 249 251 256 261 260 255 251 249 245 242 242 242 242 243 243 244 243 243 244 246 246 245 245 246 244 241 242 244 245 245 245 246 248 250 252 254 253 253 253 249 244 243 245 246 245 244 244 244 246 249 252 254 256 258 258 260 261 260 253 240 232 230 229 230 232 232 233 237 240 243 252 255
243 246 248 251 255 259 260 255 250 249 245 240 240 241 241 241 242 243 243 243 244 245 244 243 242 242 239 237 239 241 241 242 243 244 247 250 254 255 251 248 251 251 246 242 243 244 244 242 242 244 247 250 252 254 256 258 258 258 259 259 252 240 230 227 227 228 231 233 234 237 240 243 250 255
243 244 247 250 252 255 258 256 251 249 245 240 239 239 240 241 241 242 243 243 243 244 242 240 238 236 233 232 236 238 238 240 242 244 247 250 253 254 251 246 247 248 246 243 241 241 240 241 242 244 247 249 252 254 255 257 258 257 258 258 253 240 230 225 225 225 228 232 234 237 240 243 248 252
244 243 244 246 248 251 256 258 254 249 243 238 237 238 239 240 241 242 242 242 242 242 240 237 234 231 229 229 233 235 236 238 242 244 246 248 251 251 249 246 245 245 243 241 239 237 237 239 242 244 247 249 251 254 256 256 257 257 257 258 255 243 231 225 223 224 226 230 233 236 239 241 246 250
242 242 243 244 246 249 254 257 254 247 241 237 235 235 237 239 240 241 241 241 241 241 239 234 229 228 227 227 230 233 235 237 241 243 243 246 248 249 247 244 242 241 239 239 238 235 235 238 241 244 247 250 251 253 254 255 255 256 256 256 255 247 234 226 223 222 224 227 231 234 236 238 242 247
240 240 241 243 245 248 251 252 250 246 240 236 233 232 234 237 239 239 239 239 240 240 237 231 226 226 226 226 229 232 234 236 239 240 241 244 246 245 243 240 238 237 238 237 236 235 236 238 240 243 245 248 250 251 251 252 253 255 256 255 254 248 237 228 224 222 222 225 229 232 234 235 238 244
239 238 239 241 243 245 244 245 246 245 240 235 232 230 231 235 237 238 238 237 237 237 232 224 222 223 224 225 228 230 233 235 236 237 239 241 243 242 239 236 236 236 236 236 236 236 237 238 239 241 242 244 247 248 249 251 253 255 257 257 254 249 239 229 224 221 221 223 227 230 232 233 235 240
236 236 237 239 240 241 241 242 244 245 241 236 231 229 229 232 235 237 236 234 234 233 226 218 218 221 222 224 227 230 232 233 234 235 236 238 238 238 236 234 234 235 235 235 235 234 235 236 237 238 239 240 242 245 248 252 254 256 258 257 255 250 242 231 224 221 220 221 224 228 231 232 233 237
231 232 234 236 238 239 242 243 242 243 242 237 231 228 229 231 233 235 234 232 231 230 223 217 217 218 219 222 225 228 230 231 231 232 233 234 235 234 233 232 232 233 233 233 231 230 229 230 231 233 235 237 241 245 249 253 255 257 258 258 256 251 243 234 225 220 219 219 221 225 229 230 231 233
227 230 232 234 236 239 241 241 239 241 242 239 232 228 229 230 230 233 233 230 228 226 221 217 217 218 218 220 223 226 228 228 228 229 229 230 231 231 230 230 229 229 230 229 226 224 224 224 226 229 233 238 241 246 249 253 255 257 258 258 256 252 245 237 228 221 218 217 218 220 225 227 228 228
228 230 232 233 235 237 239 239 237 237 241 241 234 227 227 229 230 231 230 227 224 222 218 216 217 218 219 221 223 225 226 224 224 226 227 225 226 229 228 226 226 226 226 224 220 218 219 221 224 228 234 240 243 246 249 253 255 257 258 258 257 253 247 239 231 224 219 216 215 217 220 223 224 224
229 231 233 233 235 237 238 236 234 235 239 243 237 228 225 227 227 226 225 222 219 217 215 214 214 215 217 220 221 222 222 220 219 222 223 222 222 226 225 223 223 223 222 219 216 214 215 218 223 229 235 242 245 246 249 253 255 257 256 257 257 254 249 242 234 228 223 218 215 215 216 219 221 221
228 231 233 234 234 235 236 233 232 232 236 241 238 226 219 220 220 220 219 216 213 212 212 212 212 213 216 218 218 217 216 216 216 217 219 220 219 221 221 217 217 219 217 214 212 211 212 216 222 228 234 240 245 246 247 249 253 257 256 256 256 255 252 246 238 232 227 222 218 215 215 217 219 220
227 229 231 232 231 231 231 229 229 230 234 236 232 218 211 214 215 215 214 211 208 209 210 211 210 212 215 217 215 212 210 212 214 213 215 217 217 217 215 211 213 216 215 213 211 210 211 216 221 225 231 237 243 245 243 243 249 256 259 260 261 261 258 252 242 236 231 227 222 218 216 217 218 219
226 229 230 228 224 224 225 225 226 229 232 231 222 208 205 209 211 212 210 207 206 207 209 209 209 210 214 215 212 207 206 209 212 211 211 213 214 215 214 211 212 214 213 210 209 209 211 216 219 221 226 232 235 236 237 241 247 256 268 276 274 271 270 264 249 239 234 230 226 222 218 217 217 218
228 230 229 225 221 221 223 223 222 225 227 222 211 202 202 206 209 208 205 204 205 205 206 207 208 209 211 211 208 206 207 208 209 208 209 210 212 214 214 212 212 211 208 207 207 208 211 214 215 216 220 224 223 223 228 236 244 255 274 294 290 286 287 279 259 240 234 231 229 225 221 217 217 217
227 229 227 223 221 223 224 221 220 222 220 212 202 198 200 203 204 202 201 202 203 202 203 206 207 207 207 207 207 207 207 208 208 207 208 208 209 211 212 210 208 206 203 203 205 207 210 212 213 213 214 214 212 211 212 213 219 232 254 317 335 349 2 300 258 238 231 230 229 228 225 221 218 217
223 225 224 222 221 223 224 222 220 221 216 204 198 197 197 199 199 197 197 199 199 198 201 203 203 203 203 204 206 206 205 207 207 207 208 207 208 210 210 208 205 202 201 202 204 206 208 210 211 210 207 206 207 203 196 194 198 207 206 64 66 97 108 106 122 215 217 222 225 225 225 224 222 220
221 223 222 220 220 221 221 219 217 216 207 198 196 196 195 194 194 192 192 193 193 194 197 198 198 200 202 203 203 202 203 206 206 206 208 207 207 210 210 207 204 202 201 202 203 206 208 207 208 207 201 200 204 199 188 188 195 195 170 128 109 111 115 106 81 201 206 213 219 220 221 223 224 223
219 220 218 217 217 216 215 213 211 207 199 195 195 195 192 191 189 187 188 190 191 192 194 195 196 198 200 201 200 200 202 206 206 206 209 208 206 208 210 208 204 203 203 202 203 207 209 206 205 204 197 195 201 196 186 188 195 188 170 154 141 134 135 129 97 5 331 204 211 215 216 217 220 222
214 214 212 215 218 215 209 206 203 197 193 194 194 191 189 189 188 187 188 190 190 192 193 194 194 196 197 197 197 198 202 204 204 205 208 209 207 207 210 209 205 203 204 203 203 207 210 206 204 201 195 195 198 193 184 185 188 182 173 167 161 157 159 162 162 172 72 115 172 196 207 212 214 217
207 209 212 218 221 212 201 197 196 193 192 195 193 188 185 187 189 190 191 190 190 192 192 191 191 192 193 193 193 196 201 203 203 203 206 207 207 207 210 211 207 204 205 204 203 207 208 205 202 200 195 195 196 193 187 183 182 181 179 175 173 173 180 189 198 189 156 117 135 169 191 203 209 213
207 212 217 220 218 208 198 194 193 191 192 195 193 186 184 187 191 193 192 190 190 191 189 187 187 188 188 189 190 193 197 200 201 202 205 207 207 207 210 213 211 207 205 204 204 207 207 203 200 198 195 194 195 196 195 189 186 188 188 185 188 198 205 210 220 216 194 156 116 122 152 180 197 208
214 219 221 220 214 206 199 195 192 191 192 194 191 186 184 188 193 194 191 189 190 189 186 183 181 181 184 187 187 189 193 195 197 200 203 207 207 206 208 214 216 213 208 206 206 207 208 205 200 197 195 195 197 199 200 198 196 198 199 198 201 209 217 223 229 228 213 186 144 126 130 146 171 195
217 221 222 216 206 199 199 197 193 190 190 191 190 187 186 189 194 195 193 191 189 186 184 180 177 177 181 185 187 188 191 193 194 197 201 202 203 203 206 211 216 217 214 211 207 205 206 206 204 200 196 197 201 204 204 204 205 206 208 209 208 211 214 214 214 220 210 172 162 154 140 127 137 175
210 215 218 211 197 190 194 196 192 190 189 189 190 189 188 190 194 195 196 194 189 185 183 179 176 178 181 184 188 190 191 192 193 196 199 198 197 200 204 208 213 216 218 216 211 207 206 206 205 201 198 201 208 210 207 207 210 211 212 214 212 211 213 206 199 202 194 141 143 146 131 127 134 154
200 204 208 206 196 186 186 189 189 188 188 188 189 190 191 192 194 196 198 197 192 187 184 180 179 182 184 185 188 190 190 191 193 195 198 197 195 197 201 205 210 214 216 217 215 211 209 206 201 199 201 208 215 214 209 209 212 212 214 217 215 211 210 201 192 192 193 170 133 108 112 129 144 145
199 198 196 196 193 186 183 185 187 188 188 187 188 190 192 194 195 196 198 198 194 190 187 184 183 185 187 188 189 190 190 192 194 195 197 197 196 197 199 203 208 211 214 216 215 213 212 209 204 203 207 212 217 215 211 213 216 214 214 217 216 210 207 200 190 188 189 188 170 129 118 130 148 158
199 196 190 188 187 185 184 186 187 188 189 188 187 190 193 196 197 197 198 198 195 192 191 190 189 189 190 191 190 191 192 194 196 197 198 197 197 197 199 202 206 210 213 215 215 214 213 213 211 210 213 218 219 216 211 214 220 220 218 217 217 213 209 201 194 190 188 189 182 160 146 149 161 168
184 188 189 189 188 187 187 187 187 189 189 188 188 190 194 197 198 198 198 199 199 198 197 196 195 195 195 195 194 194 195 197 198 198 199 198 197 197 198 201 204 207 211 213 214 214 214 214 213 213 217 221 222 217 210 212 220 224 222 220 219 218 215 209 203 197 193 191 186 174 170 177 176 164
173 177 182 188 192 191 190 190 190 191 190 188 188 190 194 197 199 200 200 200 203 205 203 202 202 202 201 199 198 198 198 200 200 199 198 198 198 197 198 200 202 204 207 210 211 212 213 214 215 215 218 223 224 218 212 214 219 223 224 223 221 221 221 216 211 207 203 199 192 183 184 189 180 168
178 178 178 185 191 191 190 192 193 194 192 190 188 190 193 197 200 201 201 201 204 208 209 208 209 209 205 202 202 202 202 202 201 199 197 198 198 198 198 199 200 202 205 206 208 210 212 214 216 218 221 225 225 219 216 218 219 220 222 222 221 222 223 221 218 214 210 206 199 192 192 192 184 178
Height
2885 2884 2883 2883 2883 2883 2883 2883 2884 2885 2886 2887 2888 2888 2889 2889 2889 2890 2891 2893 2895 2896 2898 2899 2899 2900 2900 2900 2900 2901 2901 2901 2901 2901 2902 2903 2904 2905 2906 2907 2907 2908 2909 2909 2910 2911 2913 2914 2916 2917 2918 2918 2919 2919 2919 2920 2920 2921 2922 2924 2924 2925 2926 2927 2929 2934 2937 2938 2940 2940 2939 2939 2942 2947
2879 2877 2877 2876 2876 2876 2876 2876 2877 2877 2878 2880 2880 2881 2882 2882 2882 2883 2883 2885 2888 2890 2890 2892 2893 2893 2893 2893 2894 2894 2895 2896 2895 2895 2896 2897 2898 2899 2900 2900 2901 2901 2902 2903 2904 2905 2906 2908 2909 2910 2912 2912 2913 2913 2914 2914 2914 2915 2916 2917 2918 2918 2918 2920 2924 2929 2932 2934 2935 2935 2933 2933 2935 2938
2871 2871 2870 2869 2869 2869 2869 2869 2869 2870 2870 2872 2873 2874 2874 2874 2875 2876 2876 2876 2880 2883 2884 2886 2887 2887 2887 2887 2887 2888 2889 2890 2890 2890 2890 2891 2891 2892 2893 2894 2895 2895 2896 2897 2898 2899 2900 2901 2903 2904 2906 2907 2907 2908 2908 2908 2909 2909 2910 2910 2910 2911 2912 2915 2920 2924 2927 2929 2931 2931 2929 2928 2928 2929
2863 2863 2863 2862 2862 2862 2862 2862 2862 2863 2863 2864 2865 2866 2867 2867 2868 2869 2869 2869 2872 2876 2878 2879 2880 2881 2880 2881 2881 2882 2883 2884 2885 2884 2884 2884 2885 2886 2887 2888 2889 2890 2890 2891 2892 2893 2894 2895 2896 2898 2899 2901 2902 2902 2902 2903 2903 2903 2903 2904 2904 2905 2907 2910 2914 2918 2922 2925 2926 2926 2925 2923 2922 2922
2855 2856 2856 2855 2856 2855 2855 2855 2855 2856 2856 2857 2857 2858 2859 2860 2861 2862 2863 2864 2865 2868 2871 2872 2873 2874 2874 2874 2875 2876 2877 2878 2879 2879 2879 2879 2879 2880 2881 2883 2884 2884 2885 2885 2886 2887 2888 2889 2890 2892 2894 2895 2896 2896 2897 2897 2897 2898 2898 2898 2899 2900 2901 2904 2908 2912 2917 2920 2921 2921 2920 2919 2917 2916
2848 2848 2848 2848 2849 2849 2848 2848 2848 2849 2850 2850 2851 2852 2852 2853 2855 2856 2857 2858 2859 2861 2864 2865 2866 2867 2868 2868 2870 2871 2871 2872 2873 2873 2873 2873 2873 2875 2876 2877 2878 2879 2879 2880 2881 2881 2882 2883 2885 2886 2888 2889 2890 2890 2891 2891 2892 2892 2892 2893 2893 2894 2895 2898 2902 2906 2911 2914 2915 2916 2915 2914 2913 2911
2841 2841 2841 2841 2842 2843 2842 2842 2842 2842 2843 2844 2844 2845 2846 2847 2848 2850 2851 2852 2853 2854 2857 2859 2860 2861 2862 2862 2864 2865 2866 2866 2867 2867 2868 2868 2868 2869 2871 2872 2873 2873 2874 2874 2875 2876 2877 2878 2879 2881 2882 2883 2884 2885 2885 2886 2886 2887 2887 2888 2888 2889 2890 2892 2896 2900 2905 2908 2910 2910 2910 2908 2908 2906
2833 2833 2833 2833 2834 2836 2835 2835 2835 2836 2836 2837 2838 2839 2840 2841 2842 2844 2846 2846 2847 2848 2850 2852 2854 2855 2856 2857 2858 2860 2860 2861 2861 2862 2862 2863 2864 2864 2865 2866 2867 2868 2868 2869 2870 2871 2871 2872 2874 2875 2876 2877 2878 2879 2880 2880 2881 2881 2882 2882 2883 2883 2885 2887 2890 2895 2899 2903 2905 2906 2905 2904 2904 2902
2825 2826 2825 2825 2826 2828 2828 2827 2828 2830 2830 2831 2832 2833 2835 2836 2837 2838 2840 2841 2841 2842 2843 2846 2848 2849 2850 2851 2853 2854 2855 2855 2856 2856 2857 2858 2859 2860 2860 2861 2862 2862 2863 2863 2864 2865 2866 2867 2868 2870 2871 2872 2873 2874 2875 2875 2876 2877 2877 2878 2878 2878 2880 2882 2885 2889 2894 2897 2900 2901 2900 2900 2900 2898
2816 2817 2818 2817 2818 2820 2821 2821 2821 2823 2824 2825 2826 2828 2829 2830 2831 2832 2833 2835 2835 2836 2838 2840 2842 2843 2844 2846 2847 2849 2850 2850 2851 2852 2853 2854 2854 2855 2856 2856 2857 2857 2857 2858 2859 2860 2861 2862 2863 2864 2865 2867 2868 2869 2870 2870 2871 2872 2873 2873 2873 2873 2875 2877 2880 2883 2888 2891 2895 2896 2896 2896 2896 2894
2807 2808 2809 2809 2809 2811 2813 2814 2815 2816 2817 2818 2820 2822 2823 2824 2825 2826 2827 2829 2830 2831 2833 2835 2837 2838 2839 2840 2842 2844 2845 2845 2846 2847 2848 2849 2850 2851 2851 2852 2852 2851 2852 2853 2854 2855 2856 2857 2858 2859 2860 2861 2863 2864 2865 2866 2867 2868 2868 2868 2868 2869 2870 2872 2875 2878 2882 2886 2890 2892 2892 2893 2892 2889
2799 2800 2801 2801 2801 2803 2806 2807 2808 2809 2810 2811 2813 2815 2817 2818 2819 2820 2822 2823 2824 2826 2828 2830 2832 2833 2834 2835 2838 2839 2840 2840 2842 2843 2843 2845 2847 2847 2846 2847 2847 2846 2847 2849 2850 2851 2851 2852 2853 2854 2856 2857 2858 2860 2861 2862 2863 2863 2864 2864 2863 2864 2866 2868 2870 2873 2876 2881 2885 2887 2888 2889 2888 2886
2790 2791 2793 2793 2793 2795 2798 2800 2801 2802 2803 2804 2806 2808 2810 2812 2813 2815 2817 2818 2820 2821 2823 2825 2827 2827 2829 2831 2833 2834 2835 2836 2837 2838 2839 2841 2843 2843 2842 2842 2841 2842 2843 2845 2846 2846 2846 2848 2849 2850 2851 2852 2854 2856 2857 2858 2859 2859 2859 2859 2859 2860 2862 2864 2866 2869 2872 2875 2879 2883 2884 2885 2885 2884
2781 2783 2785 2786 2786 2787 2790 2793 2794 2795 2796 2797 2799 2801 2804 2806 2807 2809 2811 2813 2815 2816 2818 2820 2822 2822 2824 2827 2829 2829 2830 2831 2833 2834 2835 2837 2839 2839 2838 2838 2836 2837 2840 2842 2842 2841 2843 2845 2845 2846 2847 2849 2850 2852 2852 2853 2855 2855 2855 2855 2855 2856 2858 2860 2863 2865 2867 2870 2874 2878 2880 2881 2882 2882
2772 2775 2777 2779 2780 2780 2782 2785 2787 2788 2789 2791 2792 2795 2797 2799 2801 2803 2806 2808 2810 2812 2813 2815 2817 2818 2821 2823 2824 2824 2826 2827 2829 2831 2832 2833 2834 2834 2834 2834 2833 2834 2837 2838 2837 2838 2840 2841 2841 2842 2844 2845 2846 2848 2848 2849 2851 2851 2852 2851 2851 2852 2854 2856 2858 2861 2863 2866 2870 2873 2875 2877 2879 2879
2763 2766 2769 2771 2773 2773 2775 2778 2780 2781 2783 2784 2786 2788 2791 2793 2795 2797 2800 2803 2805 2807 2808 2810 2812 2814 2817 2818 2819 2820 2822 2823 2825 2827 2828 2829 2830 2830 2830 2830 2830 2831 2833 2834 2834 2835 2837 2837 2837 2839 2841 2842 2843 2844 2845 2845 2847 2848 2848 2848 2847 2848 2849 2852 2854 2857 2859 2862 2865 2869 2871 2873 2875 2876
2754 2758 2761 2763 2765 2766 2768 2771 2773 2775 2776 2778 2780 2782 2785 2787 2789 2792 2795 2798 2800 2802 2804 2805 2808 2810 2812 2813 2814 2816 2818 2820 2822 2824 2825 2825 2826 2826 2826 2827 2827 2828 2830 2830 2831 2832 2833 2834 2835 2836 2837 2838 2839 2840 2841 2842 2843 2844 2845 2844 2844 2844 2845 2847 2850 2853 2855 2858 2861 2864 2867 2869 2872 2873
2746 2749 2752 2755 2758 2760 2762 2764 2766 2768 2770 2772 2774 2776 2779 2781 2784 2787 2790 2793 2795 2798 2799 2802 2804 2806 2807 2809 2810 2812 2814 2817 2819 2819 2820 2821 2822 2823 2823 2824 2824 2825 2826 2826 2828 2829 2830 2831 2832 2833 2834 2835 2836 2837 2838 2838 2839 2840 2841 2841 2841 2841 2842 2843 2845 2849 2852 2854 2857 2860 2863 2866 2868 2870
2737 2742 2745 2748 2751 2753 2756 2758 2759 2762 2764 2765 2768 2770 2773 2776 2779 2782 2785 2788 2791 2793 2796 2798 2800 2801 2803 2805 2806 2808 2811 2814 2814 2815 2816 2817 2819 2820 2820 2820 2821 2822 2823 2824 2825 2826 2827 2828 2830 2831 2832 2832 2833 2834 2834 2835 2836 2836 2837 2837 2838 2838 2838 2839 2841 2844 2847 2850 2853 2855 2859 2862 2865 2866
2730 2734 2738 2741 2744 2747 2749 2752 2754 2756 2757 2759 2762 2764 2768 2771 2774 2778 2781 2784 2786 2789 2791 2794 2795 2796 2798 2801 2803 2805 2808 2810 2810 2811 2813 2814 2815 2816 2817 2817 2818 2819 2820 2821 2822 2823 2825 2826 2827 2828 2829 2830 2830 2831 2832 2832 2833 2833 2834 2834 2834 2835 2835 2835 2837 2839 2843 2846 2849 2852 2854 2858 2861 2863
2724 2728 2731 2734 2737 2740 2743 2747 2750 2750 2751 2754 2756 2759 2763 2766 2770 2774 2777 2780 2782 2784 2787 2789 2790 2792 2794 2797 2799 2802 2804 2805 2806 2808 2809 2811 2812 2813 2814 2814 2815 2816 2817 2818 2820 2821 2822 2824 2825 2826 2827 2827 2828 2828 2829 2830 2830 2831 2831 2831 2831 2832 2832 2832 2833 2835 2838 2842 2845 2848 2851 2854 2857 2860
2718 2721 2724 2728 2731 2734 2739 2743 2746 2745 2746 2748 2751 2754 2758 2761 2766 2770 2773 2775 2777 2780 2782 2784 2785 2787 2790 2793 2796 2798 2800 2802 2803 2805 2806 2807 2809 2810 2811 2811 2812 2814 2815 2816 2817 2818 2820 2821 2822 2823 2825 2825 2826 2827 2827 2828 2828 2828 2828 2828 2828 2828 2828 2829 2830 2831 2834 2838 2841 2844 2847 2850 2853 2856
2712 2715 2718 2722 2726 2730 2735 2739 2741 2741 2741 2742 2746 2750 2753 2757 2762 2767 2769 2771 2773 2776 2778 2780 2782 2784 2787 2789 2792 2795 2797 2799 2801 2802 2803 2805 2806 2807 2808 2809 2810 2811 2812 2814 2815 2816 2817 2819 2820 2821 2823 2824 2825 2825 2825 2825 2825 2826 2826 2825 2825 2825 2825 2826 2827 2828 2830 2834 2838 2841 2844 2847 2850 2853
2706 2710 2713 2717 2721 2726 2731 2734 2736 2737 2737 2737 2741 2746 2750 2754 2760 2763 2764 2766 2769 2771 2774 2776 2778 2781 2784 2786 2789 2792 2794 2796 2798 2799 2800 2802 2803 2804 2805 2806 2807 2809 2811 2812 2813 2814 2816 2817 2818 2819 2821 2822 2823 2823 2823 2823 2823 2823 2823 2823 2822 2822 2822 2822 2824 2826 2828 2830 2834 2837 2841 2844 2847 2851
2701 2705 2709 2713 2717 2722 2727 2730 2731 2733 2734 2734 2736 2742 2748 2752 2756 2757 2759 2762 2764 2766 2769 2772 2774 2777 2780 2783 2787 2789 2791 2793 2795 2796 2797 2799 2801 2802 2803 2804 2806 2807 2809 2810 2811 2813 2814 2815 2817 2818 2819 2820 2820 2821 2821 2821 2821 2820 2820 2820 2819 2819 2819 2820 2821 2822 2825 2827 2830 2833 2837 2841 2844 2848
2697 2701 2705 2710 2715 2719 2722 2725 2727 2729 2731 2731 2733 2739 2745 2748 2749 2752 2754 2757 2759 2761 2765 2768 2771 2774 2777 2781 2784 2786 2788 2790 2792 2793 2795 2796 2798 2800 2801 2802 2804 2806 2807 2809 2810 2811 2813 2814 2815 2816 2817 2818 2819 2819 2820 2819 2818 2818 2817 2817 2817 2816 2816 2817 2818 2820 2821 2823 2826 2830 2834 2838 2840 2843
2693 2698 2702 2706 2711 2715 2718 2720 2722 2725 2727 2728 2731 2737 2741 2742 2744 2747 2750 2752 2754 2758 2761 2765 2768 2772 2775 2778 2782 2784 2786 2787 2789 2791 2792 2794 2796 2797 2798 2800 2802 2803 2805 2808 2809 2810 2812 2813 2814 2815 2815 2816 2817 2818 2818 2817 2816 2816 2815 2815 2815 2814 2814 2815 2816 2818 2819 2821 2823 2826 2830 2833 2836 2838
2690 2694 2699 2704 2708 2711 2713 2716 2719 2721 2723 2725 2729 2734 2736 2738 2741 2743 2745 2748 2751 2755 2759 2763 2767 2771 2773 2776 2779 2782 2783 2784 2785 2788 2790 2792 2793 2795 2797 2798 2800 2802 2805 2807 2808 2810 2811 2812 2812 2813 2814 2815 2816 2816 2816 2816 2815 2815 2814 2814 2814 2813 2814 2814 2816 2817 2818 2819 2821 2823 2826 2829 2831 2832
2686 2691 2696 2701 2705 2706 2708 2712 2715 2717 2719 2722 2726 2730 2732 2734 2737 2739 2742 2745 2749 2753 2758 2762 2766 2769 2771 2774 2776 2777 2778 2780 2783 2786 2788 2790 2791 2793 2795 2797 2799 2801 2804 2806 2807 2809 2810 2810 2811 2812 2812 2813 2814 2815 2815 2815 2815 2815 2815 2815 2815 2815 2815 2816 2816 2817 2817 2818 2819 2820 2822 2824 2826 2828
2682 2687 2693 2698 2700 2702 2705 2708 2710 2712 2715 2719 2723 2726 2729 2731 2733 2736 2740 2743 2748 2753 2757 2761 2764 2767 2768 2770 2771 2773 2776 2779 2782 2784 2786 2788 2789 2791 2793 2795 2797 2799 2802 2804 2806 2807 2808 2809 2810 2811 2811 2812 2813 2814 2814 2815 2815 2815 2815 2816 2817 2817 2818 2817 2816 2816 2816 2816 2816 2817 2819 2821 2823 2825
2678 2683 2690 2694 2696 2699 2702 2705 2707 2710 2714 2717 2720 2723 2725 2728 2731 2735 2739 2744 2749 2753 2756 2759 2761 2763 2764 2765 2768 2771 2775 2777 2780 2782 2784 2786 2788 2789 2792 2793 2795 2797 2800 2802 2804 2805 2807 2808 2809 2810 2811 2811 2812 2813 2814 2814 2815 2815 2815 2816 2816 2817 2817 2817 2815 2814 2813 2813 2813 2814 2816 2818 2821 2824
2676 2682 2687 2691 2694 2696 2699 2701 2704 2708 2711 2714 2717 2720 2723 2725 2729 2734 2739 2743 2747 2750 2753 2755 2757 2759 2761 2764 2767 2770 2773 2775 2778 2780 2782 2784 2786 2788 2790 2792 2794 2796 2798 2800 2802 2804 2805 2806 2808 2809 2810 2811 2811 2812 2813 2814 2814 2815 2815 2815 2815 2815 2815 2814 2813 2811 2810 2810 2811 2812 2814 2816 2819 2822
2676 2681 2686 2689 2691 2694 2696 2699 2702 2706 2709 2712 2715 2718 2721 2723 2727 2732 2736 2740 2744 2747 2750 2753 2755 2758 2760 2763 2766 2768 2771 2773 2776 2778 2780 2782 2785 2787 2789 2790 2792 2794 2796 2798 2800 2801 2803 2805 2806 2807 2809 2810 2810 2811 2812 2813 2814 2814 2814 2814 2814 2814 2814 2813 2812 2811 2810 2811 2812 2813 2814 2816 2818 2821
2675 2680 2684 2687 2690 2693 2695 2698 2701 2704 2707 2710 2713 2717 2720 2723 2727 2731 2735 2738 2743 2746 2749 2751 2754 2757 2759 2761 2764 2767 2769 2772 2774 2777 2779 2781 2783 2785 2787 2789 2791 2792 2794 2796 2798 2800 2801 2803 2805 2806 2808 2809 2810 2811 2812 2813 2814 2814 2814 2814 2814 2814 2814 2814 2814 2813 2813 2813 2814 2814 2815 2817 2818 2820
2675 2679 2683 2686 2689 2692 2695 2697 2700 2703 2706 2709 2712 2715 2719 2723 2727 2730 2734 2737 2741 2744 2747 2750 2753 2755 2758 2760 2763 2765 2767 2770 2773 2775 2777 2779 2781 2784 2786 2787 2789 2791 2793 2795 2796 2798 2799 2802 2803 2805 2807 2808 2809 2811 2812 2813 2814 2814 2815 2815 2815 2815 2815 2815 2815 2815 2816 2816 2816 2816 2817 2818 2819 2820
2675 2679 2682 2685 2688 2691 2694 2696 2699 2702 2705 2708 2711 2714 2718 2722 2726 2729 2733 2737 2740 2743 2746 2749 2751 2754 2756 2759 2761 2764 2766 2768 2771 2773 2775 2778 2780 2782 2784 2786 2787 2790 2792 2793 2795 2796 2798 2800 2802 2804 2806 2807 2808 2810 2811 2813 2814 2814 2815 2815 2815 2815 2816 2816 2816 2817 2817 2818 2818 2818 2818 2819 2820 2821
2676 2679 2682 2685 2688 2691 2693 2695 2698 2700 2703 2707 2710 2714 2717 2721 2725 2728 2732 2736 2739 2742 2745 2748 2751 2753 2755 2758 2760 2762 2765 2767 2770 2772 2774 2776 2779 2781 2783 2784 2786 2788 2790 2792 2794 2795 2797 2799 2801 2802 2804 2806 2807 2808 2810 2811 2812 2813 2814 2815 2816 2816 2817 2817 2817 2817 2818 2819 2819 2819 2819 2819 2820 2821
2676 2678 2681 2684 2688 2690 2692 2694 2696 2699 2702 2706 2709 2713 2717 2721 2724 2728 2731 2734 2738 2741 2744 2747 2750 2752 2755 2757 2759 2762 2764 2766 2768 2771 2773 2775 2777 2779 2781 2782 2784 2786 2788 2790 2793 2794 2796 2798 2799 2801 2803 2805 2806 2807 2808 2809 2811 2812 2813 2815 2816 2817 2817 2818 2818 2818 2819 2819 2819 2819 2819 2820 2820 2821
2675 2678 2681 2684 2687 2690 2692 2693 2696 2698 2701 2705 2708 2713 2717 2720 2723 2727 2730 2733 2737 2740 2743 2746 2749 2751 2754 2756 2759 2761 2763 2766 2768 2770 2772 2774 2776 2778 2779 2781 2782 2784 2786 2788 2791 2793 2794 2796 2798 2801 2802 2803 2803 2804 2806 2808 2809 2810 2812 2813 2815 2817 2818 2818 2819 2819 2819 2820 2820 2819 2820 2820 2820 2821
2674 2677 2680 2683 2687 2689 2691 2693 2695 2697 2700 2704 2708 2712 2716 2719 2722 2725 2729 2732 2736 2739 2742 2745 2748 2750 2753 2755 2758 2760 2762 2765 2767 2768 2770 2772 2774 2776 2778 2779 2781 2782 2784 2786 2788 2791 2793 2795 2797 2799 2800 2800 2801 2802 2805 2806 2807 2809 2811 2812 2814 2816 2817 2818 2819 2819 2820 2820 2820 2820 2821 2821 2821 2821
2674 2676 2679 2682 2685 2688 2690 2692 2694 2696 2699 2703 2706 2711 2715 2718 2721 2725 2728 2732 2736 2739 2742 2744 2747 2749 2752 2755 2757 2759 2761 2763 2765 2767 2769 2771 2773 2775 2777 2778 2779 2781 2782 2784 2786 2789 2791 2793 2795 2796 2797 2798 2799 2802 2804 2805 2806 2807 2809 2810 2812 2814 2815 2816 2818 2819 2819 2820 2820 2821 2821 2821 2822 2823
2675 2677 2679 2681 2683 2686 2688 2690 2693 2695 2698 2702 2705 2709 2713 2717 2721 2724 2728 2731 2735 2738 2741 2743 2746 2748 2751 2753 2756 2758 2760 2762 2764 2766 2768 2770 2772 2774 2776 2777 2778 2780 2781 2783 2785 2787 2789 2791 2792 2794 2795 2797 2798 2801 2803 2804 2804 2805 2807 2808 2810 2812 2813 2814 2816 2817 2818 2819 2820 2820 2821 2821 2822 2823
2676 2677 2679 2681 2683 2685 2687 2689 2692 2695 2698 2701 2705 2709 2712 2716 2719 2723 2727 2730 2734 2737 2740 2743 2745 2748 2750 2752 2755 2757 2759 2761 2763 2765 2767 2769 2770 2772 2774 2776 2777 2779 2780 2782 2783 2785 2787 2789 2791 2792 2794 2795 2797 2799 2802 2803 2803 2804 2805 2807 2808 2810 2811 2813 2814 2816 2817 2818 2819 2820 2821 2821 2822 2824
2676 2678 2680 2681 2683 2685 2687 2689 2692 2694 2697 2701 2704 2708 2712 2715 2719 2722 2726 2730 2733 2737 2739 2742 2744 2747 2749 2751 2754 2756 2758 2760 2762 2764 2765 2767 2769 2771 2773 2774 2776 2777 2779 2781 2782 2784 2785 2787 2789 2790 2792 2793 2795 2798 2800 2801 2802 2802 2803 2805 2806 2808 2809 2811 2813 2814 2816 2817 2819 2820 2821 2822 2823 2824
2677 2679 2680 2682 2684 2686 2688 2690 2692 2695 2697 2700 2703 2707 2711 2715 2718 2722 2726 2730 2733 2736 2739 2741 2743 2745 2748 2750 2752 2755 2757 2759 2761 2763 2764 2766 2767 2769 2771 2773 2775 2776 2778 2779 2780 2782 2783 2785 2787 2789 2790 2792 2794 2796 2798 2798 2799 2801 2802 2803 2804 2806 2807 2809 2811 2813 2815 2816 2818 2820 2821 2822 2824 2825